Voltar ao catálogo

STARLINK-32560

AtivoComunicaçõesVLEO
NORAD 61982·PAYLOAD·🇺🇸 United States

Lançado Nov 14, 2024 de Cape Canaveral Space Force Station

Loading…

Próximas Passagens (próximas 24 horas)

TLE

AtualizadoSource: CelesTrak SupGP

Época: Sep 15, 2026, 03:16 UTC

1 61982C 24210Z   26258.13659722 -.00015262  00000+0 -55287-3 0  2588
2 61982  43.0012 189.6787 0001171 270.2235 184.7617 15.27581247    12

Acompanhe STARLINK-32560 em tempo real com AllMySat

Download on the App Store